Zurück zum Katalog

USA 363

AktivMilitärVLEO
NORAD 59823·PAYLOAD·🇺🇸 United States

Gestartet May 22, 2024 von Vandenberg Space Force Base

Loading…

Nächste Überflüge (nächste 24 Stunden)

TLE

VeraltetSource: Mike McCants

Epoche: Aug 24, 2026, 20:42 UTC

1 59823U 24096K   26236.86251358 0.00000000  00000-0  00000-0 0    08
2 59823  70.0215 154.6070 0002995  14.0835 345.9165 14.96713079    03

Verfolge USA 363 in Echtzeit mit AllMySat

Download on the App Store